EN

Hourly Weather Dzierzgowo

Today, 20 October, Tuesday

Time Temperature Precipitation Wind Pressure Humidity
00:00 +3°C° 0 mm 3 mps 753 mmHg 91%
01:00 +3°C° 0 mm 3 mps 753 mmHg 91%
02:00 +2°C° 0 mm 3 mps 753 mmHg 92%
03:00 +2°C° 0 mm 3 mps 753 mmHg 92%
04:00 +2°C° 0 mm 3 mps 753 mmHg 93%
05:00 +2°C° 0 mm 3 mps 753 mmHg 92%
06:00 +4°C° 0 mm 2 mps 753 mmHg 91%
07:00 +4°C° 0 mm 2 mps 754 mmHg 90%
08:00 +5°C° 0 mm 2 mps 754 mmHg 85%
09:00 +6°C° 0 mm 2 mps 754 mmHg 80%
10:00 +8°C° 0 mm 3 mps 754 mmHg 75%
11:00 +8°C° 0 mm 3 mps 754 mmHg 71%
12:00 +9°C° 0 mm 3 mps 753 mmHg 68%
13:00 +10°C° 0 mm 4 mps 753 mmHg 65%
14:00 +8°C° 0 mm 4 mps 753 mmHg 67%
15:00 +8°C° 0 mm 4 mps 752 mmHg 70%
16:00 +8°C° 0 mm 5 mps 751 mmHg 72%
17:00 +8°C° 0 mm 5 mps 751 mmHg 73%
18:00 +8°C° 0 mm 5 mps 750 mmHg 74%
19:00 +7°C° 0 mm 6 mps 750 mmHg 75%
20:00 +7°C° 0 mm 6 mps 749 mmHg 75%
21:00 +8°C° 0 mm 6 mps 749 mmHg 75%
22:00 +8°C° 0 mm 6 mps 749 mmHg 75%
23:00 +8°C° 0 mm 5 mps 748 mmHg 75%

Tomorrow, 21 October, Wednesday

Time Temperature Precipitation Wind Pressure Humidity
00:00 +8°C° 0 mm 5 mps 748 mmHg 75%
01:00 +7°C° 0 mm 4 mps 748 mmHg 76%
02:00 +8°C° 0.1 mm 5 mps 747 mmHg 75%
03:00 +8°C° 0.1 mm 5 mps 747 mmHg 74%
04:00 +8°C° 0.1 mm 5 mps 746 mmHg 74%
05:00 +8°C° 0.1 mm 5 mps 746 mmHg 77%
06:00 +8°C° 0.1 mm 5 mps 746 mmHg 80%
07:00 +8°C° 0.1 mm 5 mps 746 mmHg 83%
08:00 +8°C° 0.1 mm 5 mps 746 mmHg 83%
09:00 +9°C° 0.1 mm 5 mps 747 mmHg 83%
10:00 +10°C° 0.1 mm 4 mps 747 mmHg 83%
11:00 +10°C° 0 mm 4 mps 747 mmHg 83%
12:00 +10°C° 0 mm 4 mps 747 mmHg 83%
13:00 +10°C° 0 mm 3 mps 747 mmHg 83%
14:00 +10°C° 0 mm 3 mps 746 mmHg 82%
15:00 +10°C° 0 mm 3 mps 746 mmHg 81%
16:00 +10°C° 0 mm 2 mps 746 mmHg 80%
17:00 +10°C° 0 mm 3 mps 746 mmHg 79%
18:00 +10°C° 0 mm 3 mps 746 mmHg 78%
19:00 +10°C° 0 mm 4 mps 746 mmHg 77%
20:00 +10°C° 0 mm 4 mps 746 mmHg 79%
21:00 +10°C° 0 mm 4 mps 746 mmHg 80%
22:00 +10°C° 0 mm 4 mps 746 mmHg 81%
23:00 +9°C° 0 mm 5 mps 746 mmHg 81%

Day after tomorrow, 22 October, Thursday

Time Temperature Precipitation Wind Pressure Humidity
00:00 +9°C° 0 mm 5 mps 746 mmHg 80%
01:00 +9°C° 0 mm 5 mps 746 mmHg 80%
02:00 +9°C° 0 mm 5 mps 746 mmHg 79%
03:00 +9°C° 0 mm 5 mps 746 mmHg 79%
04:00 +9°C° 0 mm 5 mps 746 mmHg 78%
05:00 +9°C° 0 mm 5 mps 746 mmHg 79%
06:00 +9°C° 0 mm 5 mps 746 mmHg 80%
07:00 +9°C° 0 mm 5 mps 746 mmHg 82%
08:00 +10°C° 0 mm 5 mps 747 mmHg 78%
09:00 +13°C° 0 mm 5 mps 747 mmHg 74%
10:00 +15°C° 0 mm 5 mps 747 mmHg 70%
11:00 +16°C° 0 mm 5 mps 747 mmHg 68%
12:00 +16°C° 0 mm 5 mps 747 mmHg 66%
13:00 +17°C° 0 mm 5 mps 747 mmHg 65%
14:00 +16°C° 0 mm 5 mps 747 mmHg 68%
15:00 +15°C° 0 mm 4 mps 747 mmHg 72%
16:00 +15°C° 0 mm 4 mps 747 mmHg 76%
17:00 +14°C° 0 mm 4 mps 747 mmHg 78%
18:00 +13°C° 0 mm 4 mps 747 mmHg 80%
19:00 +13°C° 0 mm 4 mps 747 mmHg 83%
20:00 +13°C° 0 mm 4 mps 747 mmHg 83%
21:00 +12°C° 0 mm 4 mps 746 mmHg 84%
22:00 +12°C° 0 mm 4 mps 746 mmHg 84%
23:00 +12°C° 0 mm 4 mps 746 mmHg 84%

23 October, Friday

Time Temperature Precipitation Wind Pressure Humidity
00:00 +12°C° 0 mm 4 mps 746 mmHg 84%
01:00 +12°C° 0 mm 4 mps 746 mmHg 83%
02:00 +12°C° 0 mm 4 mps 745 mmHg 82%
03:00 +12°C° 0 mm 5 mps 745 mmHg 80%
04:00 +12°C° 0 mm 5 mps 745 mmHg 79%
05:00 +12°C° 0 mm 5 mps 745 mmHg 79%
06:00 +12°C° 0 mm 5 mps 744 mmHg 78%
07:00 +12°C° 0 mm 5 mps 744 mmHg 78%
08:00 +13°C° 0.2 mm 5 mps 744 mmHg 80%
09:00 +13°C° 0.2 mm 5 mps 744 mmHg 82%
10:00 +13°C° 0.2 mm 6 mps 745 mmHg 84%
11:00 +14°C° 0 mm 6 mps 745 mmHg 80%
12:00 +15°C° 0 mm 6 mps 745 mmHg 76%
13:00 +15°C° 0 mm 6 mps 745 mmHg 71%
14:00 +15°C° 0 mm 5 mps 745 mmHg 72%
15:00 +14°C° 0 mm 5 mps 745 mmHg 73%
16:00 +14°C° 0 mm 4 mps 745 mmHg 74%
17:00 +13°C° 0 mm 3 mps 745 mmHg 77%
18:00 +12°C° 0 mm 3 mps 745 mmHg 80%
19:00 +10°C° 0 mm 3 mps 745 mmHg 83%
20:00 +10°C° 0 mm 2 mps 746 mmHg 84%
21:00 +10°C° 0 mm 2 mps 746 mmHg 84%
22:00 +10°C° 0 mm 1 mps 746 mmHg 85%
23:00 +10°C° 0 mm 1 mps 746 mmHg 86%

24 October, Saturday

Time Temperature Precipitation Wind Pressure Humidity
00:00 +10°C° 0 mm 1 mps 746 mmHg 86%
01:00 +10°C° 0 mm 1 mps 745 mmHg 87%
02:00 +10°C° 0 mm 1 mps 745 mmHg 87%
03:00 +9°C° 0 mm 2 mps 745 mmHg 87%
04:00 +10°C° 0 mm 2 mps 745 mmHg 87%
05:00 +10°C° 0.2 mm 2 mps 745 mmHg 89%
06:00 +10°C° 0.2 mm 2 mps 744 mmHg 91%
07:00 +9°C° 0.2 mm 2 mps 744 mmHg 92%
08:00 +10°C° 0.2 mm 3 mps 744 mmHg 91%
09:00 +10°C° 0.2 mm 3 mps 744 mmHg 90%
10:00 +11°C° 0.2 mm 4 mps 744 mmHg 89%
11:00 +10°C° 0.6 mm 5 mps 744 mmHg 85%
12:00 +10°C° 0.6 mm 6 mps 744 mmHg 80%
13:00 +10°C° 0.6 mm 7 mps 744 mmHg 76%
14:00 +10°C° 0.1 mm 6 mps 745 mmHg 77%
15:00 +10°C° 0.1 mm 5 mps 745 mmHg 77%
16:00 +10°C° 0.1 mm 4 mps 745 mmHg 78%
17:00 +8°C° 0.1 mm 4 mps 746 mmHg 79%
18:00 +8°C° 0.1 mm 4 mps 746 mmHg 81%
19:00 +7°C° 0.1 mm 4 mps 747 mmHg 82%
20:00 +7°C° 0 mm 5 mps 747 mmHg 83%
21:00 +6°C° 0 mm 5 mps 748 mmHg 83%
22:00 +6°C° 0 mm 5 mps 748 mmHg 84%
23:00 +6°C° 0 mm 5 mps 748 mmHg 86%

25 October, Sunday

Time Temperature Precipitation Wind Pressure Humidity
00:00 +5°C° 0 mm 5 mps 748 mmHg 88%
01:00 +5°C° 0 mm 4 mps 749 mmHg 90%
02:00 +5°C° 0 mm 4 mps 749 mmHg 91%
03:00 +4°C° 0 mm 4 mps 749 mmHg 92%
04:00 +4°C° 0 mm 3 mps 749 mmHg 93%
05:00 +4°C° 0 mm 3 mps 750 mmHg 93%
06:00 +4°C° 0 mm 3 mps 750 mmHg 94%
07:00 +3°C° 0 mm 3 mps 750 mmHg 95%
08:00 +5°C° 0 mm 3 mps 750 mmHg 88%
09:00 +7°C° 0 mm 2 mps 751 mmHg 82%
10:00 +9°C° 0 mm 2 mps 751 mmHg 76%
11:00 +10°C° 0 mm 2 mps 751 mmHg 72%
12:00 +10°C° 0 mm 2 mps 751 mmHg 67%
13:00 +12°C° 0 mm 2 mps 751 mmHg 63%
14:00 +11°C° 0 mm 1 mps 751 mmHg 66%
15:00 +10°C° 0 mm 1 mps 750 mmHg 70%
16:00 +10°C° 0 mm 1 mps 750 mmHg 73%
17:00 +9°C° 0 mm 1 mps 750 mmHg 76%
18:00 +8°C° 0 mm 1 mps 750 mmHg 78%
19:00 +7°C° 0 mm 2 mps 751 mmHg 81%
20:00 +6°C° 0 mm 2 mps 751 mmHg 83%
21:00 +6°C° 0 mm 2 mps 751 mmHg 85%
22:00 +5°C° 0 mm 3 mps 751 mmHg 86%
23:00 +4°C° 0 mm 3 mps 751 mmHg 88%

26 October, Monday

Time Temperature Precipitation Wind Pressure Humidity
00:00 +4°C° 0 mm 3 mps 751 mmHg 89%
01:00 +4°C° 0 mm 3 mps 750 mmHg 90%
02:00 +4°C° 0 mm 3 mps 750 mmHg 91%
03:00 +3°C° 0 mm 3 mps 750 mmHg 92%
04:00 +3°C° 0 mm 3 mps 750 mmHg 92%
05:00 +3°C° 0 mm 3 mps 750 mmHg 92%
06:00 +3°C° 0 mm 3 mps 750 mmHg 92%
07:00 +3°C° 0 mm 4 mps 749 mmHg 92%
08:00 +5°C° 0 mm 4 mps 749 mmHg 85%
09:00 +6°C° 0 mm 5 mps 749 mmHg 77%
10:00 +8°C° 0 mm 5 mps 749 mmHg 70%
11:00 +9°C° 0 mm 5 mps 749 mmHg 66%
12:00 +9°C° 0 mm 6 mps 749 mmHg 62%
13:00 +10°C° 0 mm 6 mps 748 mmHg 58%
14:00 +9°C° 0 mm 5 mps 748 mmHg 62%
15:00 +9°C° 0 mm 5 mps 748 mmHg 66%
16:00 +8°C° 0 mm 4 mps 747 mmHg 70%
17:00 +7°C° 0 mm 4 mps 747 mmHg 72%
18:00 +7°C° 0 mm 4 mps 747 mmHg 75%
19:00 +6°C° 0 mm 5 mps 747 mmHg 78%
20:00 +6°C° 0 mm 4 mps 747 mmHg 80%
21:00 +6°C° 0 mm 4 mps 747 mmHg 82%
22:00 +6°C° 0 mm 4 mps 747 mmHg 84%
23:00 +6°C° 0 mm 4 mps 747 mmHg 85%
Show more